This demonstration page uses our WeatherBlox Daily Observations layout. Learn more.

Hourly Observations for November 15, 2016

Temp ( °F °C ) Dew Point ( °F °C ) Humidity (%) Winds ( mph kmh ) Pressure ( in mb ) Visibility ( mi km ) Precip ( " mm )
12:15 am 00:15 Cloudy with Light Rain 46 8 45 7 93 93 WNW 5 7 30 1016 10 16.09344 0 0
12:35 am 00:35 Cloudy with Light Rain 46 8 45 7 93 93 WNW 3 6 30 1016 10 16.09344 0 0
12:55 am 00:55 Cloudy with Light Drizzle 46 8 45 7 93 93 undefined N/A 30 1016 10 16.09344 0 0
1:15 am 01:15 Cloudy 46 8 45 7 93 93 undefined N/A 30 1016 10 16.09344 0 0
1:35 am 01:35 Cloudy 46 8 45 7 93 93 undefined N/A 30 1016 10 16.09344 0 0
1:55 am 01:55 Cloudy 46 8 45 7 93 93 undefined N/A 30 1016 10 16.09344 0 0
2:15 am 02:15 Cloudy 46 8 46 8 100 100 undefined N/A 30 1016 10 16.09344 0 0
2:35 am 02:35 Cloudy 48 9 45 7 87 87 undefined N/A 30 1016 10 16.09344 0 0
2:55 am 02:55 Cloudy with Light Rain 48 9 45 7 87 87 undefined N/A 30 1016 10 16.09344 0 0
3:15 am 03:15 Cloudy with Light Rain 48 9 46 8 94 94 undefined N/A 30 1016 10 16.09344 0 0
3:35 am 03:35 Cloudy with Light Rain 46 8 46 8 100 100 undefined N/A 29.97 1015 10 16.09344 0 0
3:55 am 03:55 Cloudy with Light Rain 46 8 46 8 100 100 undefined N/A 29.97 1015 10 16.09344 0 0
4:15 am 04:15 Cloudy with Light Rain 48 9 46 8 94 94 undefined N/A 29.94 1014 10 16.09344 0 0
4:35 am 04:35 Cloudy with Light Rain 48 9 46 8 94 94 undefined N/A 29.94 1014 10 16.09344 0 0
4:55 am 04:55 Cloudy with Light Rain 48 9 46 8 94 94 undefined N/A 29.94 1014 10 16.09344 0 0
5:15 am 05:15 Cloudy with Light Rain 46 8 46 8 100 100 undefined N/A 29.97 1015 10 16.09344 0 0
5:35 am 05:35 Cloudy 46 8 46 8 100 100 undefined N/A 29.97 1015 10 16.09344 0 0
5:55 am 05:55 Cloudy 48 9 46 8 94 94 undefined N/A 29.94 1014 10 16.09344 0 0
6:15 am 06:15 Cloudy with Light Rain 48 9 46 8 94 94 undefined N/A 29.94 1014 10 16.09344 0 0
6:35 am 06:35 Cloudy with Light Drizzle 46 8 46 8 100 100 undefined N/A 29.97 1015 10 16.09344 0 0
6:55 am 06:55 Cloudy with Light Rain 46 8 46 8 100 100 undefined N/A 29.97 1015 10 16.09344 0 0
7:15 am 07:15 Cloudy 48 9 46 8 94 94 undefined N/A 29.94 1014 10 16.09344 0 0
7:35 am 07:35 Cloudy 48 9 46 8 94 94 undefined N/A 29.94 1014 10 16.09344 0 0
7:55 am 07:55 Cloudy 50 10 46 8 88 88 undefined N/A 29.94 1014 10 16.09344 0 0
8:15 am 08:15 Cloudy 50 10 46 8 88 88 WNW 3 6 29.94 1014 10 16.09344 0 0
8:35 am 08:35 Cloudy 50 10 46 8 88 88 undefined N/A 29.94 1014 10 16.09344 0 0
8:55 am 08:55 Cloudy 50 10 46 8 88 88 undefined N/A 29.94 1014 10 16.09344 0 0
9:15 am 09:15 Cloudy 50 10 46 8 88 88 NW 8 13 29.94 1014 10 16.09344 0 0
9:55 am 09:55 Mostly Cloudy 52 11 45 7 77 77 NW 5 7 29.94 1014 10 16.09344 0 0
10:15 am 10:15 Partly Cloudy 55 13 43 6 63 63 NNW 8 13 29.94 1014 10 16.09344 0 0
10:35 am 10:35 Sunny 57 14 41 5 55 55 N 9 15 29.94 1014 10 16.09344 0 0
10:55 am 10:55 Sunny 59 15 39 4 48 48 NNW 9 15 29.91 1013 10 16.09344 0 0
11:15 am 11:15 Sunny 59 15 36 2 42 42 NNW 10 17 29.91 1013 10 16.09344 0 0
11:35 am 11:35 Mostly Cloudy 61 16 37 3 42 42 NNW 12 19 29.91 1013 10 16.09344 0 0
11:55 am 11:55 Mostly Cloudy 61 16 37 3 42 42 NNW 9 15 29.88 1012 10 16.09344 0 0
12:15 pm 12:15 Partly Cloudy 59 15 39 4 48 48 NNW 13 20 29.88 1012 10 16.09344 0 0
12:35 pm 12:35 Mostly Cloudy 59 15 41 5 51 51 NW 14 22 29.88 1012 10 16.09344 0 0
12:55 pm 12:55 Cloudy 61 16 37 3 42 42 NW 12 19 29.88 1012 10 16.09344 0 0
1:15 pm 13:15 Cloudy 61 16 37 3 42 42 NW 14 22 29.88 1012 10 16.09344 0 0
1:35 pm 13:35 Cloudy 61 16 37 3 42 42 NW 10 17 29.88 1012 10 16.09344 0 0
1:55 pm 13:55 Partly Cloudy 61 16 37 3 42 42 NNW 8 13 29.88 1012 10 16.09344 0 0
2:15 pm 14:15 Mostly Cloudy 61 16 37 3 42 42 NW 10 17 29.88 1012 10 16.09344 0 0
2:35 pm 14:35 Cloudy 61 16 37 3 42 42 WNW 7 11 29.85 1011 10 16.09344 0 0
2:55 pm 14:55 Partly Cloudy 61 16 39 4 45 45 W 6 9 29.85 1011 10 16.09344 0 0
3:15 pm 15:15 Sunny 63 17 39 4 42 42 WNW 8 13 29.85 1011 10 16.09344 0 0
3:35 pm 15:35 Sunny 61 16 37 3 42 42 NW 3 6 29.85 1011 10 16.09344 0 0
3:55 pm 15:55 Sunny 61 16 37 3 42 42 N 3 6 29.85 1011 10 16.09344 0 0
4:15 pm 16:15 Sunny 61 16 37 3 42 42 NNE 3 6 29.85 1011 10 16.09344 0 0
4:35 pm 16:35 Sunny 59 15 37 3 45 45 N 3 6 29.85 1011 10 16.09344 0 0
4:55 pm 16:55 Sunny 59 15 37 3 45 45 Calm 29.85 1011 10 16.09344 0 0
5:15 pm 17:15 Clear 55 13 37 3 51 51 Calm 29.85 1011 10 16.09344 0 0
5:35 pm 17:35 Clear 54 12 39 4 58 58 Calm 29.85 1011 10 16.09344 0 0
5:55 pm 17:55 Clear 52 11 39 4 62 62 SSW 3 6 29.88 1012 10 16.09344 0 0
6:15 pm 18:15 Clear 50 10 39 4 67 67 SW 3 6 29.88 1012 10 16.09344 0 0
6:35 pm 18:35 Clear 50 10 39 4 67 67 SW 3 6 29.88 1012 10 16.09344 0 0
6:55 pm 18:55 Clear 48 9 39 4 71 71 Calm 29.85 1011 10 16.09344 0 0
7:15 pm 19:15 Clear 46 8 39 4 76 76 WSW 3 6 29.88 1012 10 16.09344 0 0
7:35 pm 19:35 Clear 45 7 41 5 87 87 W 5 7 29.88 1012 10 16.09344 0 0
7:55 pm 19:55 Clear 45 7 39 4 81 81 W 7 11 29.88 1012 10 16.09344 0 0
8:15 pm 20:15 Clear 46 8 41 5 82 82 WSW 5 7 29.88 1012 10 16.09344 0 0
8:35 pm 20:35 Clear 45 7 39 4 81 81 WSW 5 7 29.88 1012 10 16.09344 0 0
8:55 pm 20:55 Clear 45 7 41 5 87 87 Calm 29.91 1013 10 16.09344 0 0
9:15 pm 21:15 Clear 46 8 39 4 76 76 W 6 9 29.91 1013 10 16.09344 0 0
9:35 pm 21:35 Clear 45 7 39 4 81 81 undefined N/A 29.91 1013 10 16.09344 0 0
9:55 pm 21:55 Clear 46 8 37 3 71 71 undefined N/A 29.91 1013 10 16.09344 0 0
10:15 pm 22:15 Clear 39 4 37 3 93 93 undefined N/A 29.91 1013 10 16.09344 0 0
10:35 pm 22:35 Clear 43 6 37 3 81 81 W 7 11 29.91 1013 10 16.09344 0 0
10:55 pm 22:55 Clear 41 5 37 3 87 87 W 8 13 29.91 1013 10 16.09344 0 0
11:15 pm 23:15 Clear 41 5 36 2 81 81 undefined N/A 29.91 1013 10 16.09344 0 0
11:35 pm 23:35 Clear 48 9 34 1 58 58 undefined N/A 29.88 1012 10 16.09344 0 0
11:55 pm 23:55 Clear 45 7 34 1 66 66 undefined N/A 29.91 1013 10 16.09344 0 0

Powered by AerisWeather